Content
SEND FEEDBACK

Daily
Averages
Monthly
Summary
United States of America

YIGO, GUAM


Home > North America > United States > Guam
Elevation: 530 feet     Latitude: 13 32N     Longitude: 144 53E

WEATHER
 
SELECT A DAY
Number of Records: 209,044;   Date Range: 1/1/95 - 7/29/14
 
SHARE

PRINT THIS DATA

[ ← Previous Day ]
WEATHER ALMANAC - MAY 7, 2013
[ Next Day → ]
[ °C ]   °F
Weather ElementAverageHighLow
Temperature84.8 °F89.6 °F (2:18 pm)78.8 °F (6:07 am)
Dewpoint75.2 °F77 °F (7:54 am)73.4 °F (11:28 am)
Humidity73.2 %89 % (6:07 am)62 % (11:28 am)
Barometer29.83 in29.88 in (8:10 am)29.77 in (3:54 pm)
Wind Speed7.5 mph12.7 mph (1:30 pm)
Wind Gust19.6 mph (12:28 pm)
Weather ElementAverage
Visibility9.5 mi
Wind DirectionE (94.6 °)

Weather ElementTotal
Precipitation0.07 in
Cooling Degree Days19.2 (Base 65)
Growing Degree Days34.2 (Base 50)
Averaged from 37 records on May 7, 2013
WEATHER CONDITIONS BREAKOUT
WIND DIRECTION BREAKOUT
WEATHER BY HOUR - MAY 7, 2013
[ °C ]   °F
Local TimeTemperatureDewpointHumidityBarometerVisibilityWind DirectionWind SpeedGust SpeedPrecipitationEventsConditions
1:54 AM80.1 °F75.9 °F87 %29.85 in10.0 miEast (80°)3.5 mphClear
2:54 AM81.0 °F75.9 °F85 %29.83 in10.0 miCalmPartly Cloudy
3:54 AM80.1 °F75.9 °F87 %29.82 in10.0 miEast (100°)3.5 mph0.01 inClear
4:54 AM81.0 °F75.9 °F85 %29.83 in10.0 miCalmScattered Clouds
5:06 AM80.6 °F75.2 °F84 %29.85 in10.0 miENE (70°)3.5 mphMostly Cloudy
5:54 AM80.1 °F75.0 °F85 %29.84 in6.0 miESE (110°)9.2 mph0.02 inRainLight Rain
6:07 AM78.8 °F75.2 °F89 %29.86 in5.0 miSE (130°)3.5 mph0.01 inRainLight Rain
6:54 AM81.0 °F75.0 °F82 %29.84 in10.0 miEast (90°)4.6 mph0.01 inClear
7:54 AM84.0 °F77.0 °F79 %29.86 in10.0 miENE (70°)5.8 mphClear
8:10 AM84.2 °F75.2 °F74 %29.88 in1.5 miEast (100°)6.9 mphHaze
8:23 AM84.2 °F75.2 °F74 %29.88 in10.0 miEast (100°)8.1 mphClear
8:54 AM84.9 °F75.9 °F74 %29.86 in10.0 miEast (100°)6.9 mphMostly Cloudy
8:56 AM84.2 °F75.2 °F74 %29.88 in10.0 miEast (90°)8.1 mphScattered Clouds
9:54 AM86.0 °F75.9 °F72 %29.85 in10.0 miESE (120°)8.1 mphScattered Clouds
10:49 AM87.8 °F75.2 °F66 %29.86 in10.0 miEast (100°)6.9 mphMostly Cloudy
10:54 AM88.0 °F75.0 °F65 %29.84 in10.0 miEast (90°)10.4 mphMostly Cloudy
11:28 AM87.8 °F73.4 °F62 %29.86 in10.0 miESE (110°)10.4 mphMostly Cloudy
11:40 AM87.8 °F75.2 °F66 %29.85 in10.0 miESE (110°)10.4 mphMostly Cloudy
11:54 AM88.0 °F75.0 °F65 %29.82 in10.0 miESE (110°)10.4 mph17.3 mphMostly Cloudy
12:28 PM87.8 °F73.4 °F62 %29.84 in10.0 miESE (110°)11.5 mph19.6 mphScattered Clouds
12:54 PM88.0 °F73.9 °F63 %29.80 in10.0 miEast (80°)10.4 mphMostly Cloudy
1:30 PM87.8 °F75.2 °F66 %29.81 in10.0 miEast (100°)12.7 mph17.3 mphMostly Cloudy
1:54 PM88.0 °F75.0 °F65 %29.78 in10.0 miEast (100°)11.5 mphMostly Cloudy
2:01 PM86.0 °F75.2 °F70 %29.81 in10.0 miSE (130°)10.4 mphMostly Cloudy
2:18 PM89.6 °F75.2 °F62 %29.81 in10.0 miESE (110°)10.4 mphScattered Clouds
2:54 PM88.0 °F73.9 °F63 %29.78 in10.0 miEast (100°)9.2 mphPartly Cloudy
3:54 PM88.0 °F75.0 °F65 %29.77 in10.0 miESE (110°)11.5 mphPartly Cloudy
4:30 PM86.0 °F75.2 °F70 %29.79 in10.0 miEast (100°)8.1 mphMostly Cloudy
4:54 PM86.0 °F73.9 °F67 %29.77 in10.0 miEast (100°)8.1 mphMostly Cloudy
5:07 PM87.8 °F75.2 °F66 %29.79 in10.0 miEast (100°)8.1 mphScattered Clouds
5:54 PM86.0 °F75.0 °F70 %29.77 in10.0 miEast (80°)10.4 mphPartly Cloudy
6:54 PM84.0 °F75.0 °F74 %29.79 in10.0 miEast (80°)6.9 mphClear
7:54 PM84.0 °F75.9 °F76 %29.81 in10.0 miEast (90°)6.9 mphPartly Cloudy
8:54 PM84.0 °F75.0 °F74 %29.83 in10.0 miEast (100°)6.9 mphScattered Clouds
9:54 PM82.0 °F75.9 °F82 %29.85 in10.0 miSE (130°)4.6 mph0.02 inOvercast
10:54 PM82.9 °F75.9 °F79 %29.85 in10.0 miEast (100°)6.9 mphScattered Clouds
11:54 PM82.9 °F75.9 °F79 %29.85 in10.0 miEast (100°)3.5 mphMostly Cloudy
Hourly data recorded from PGUM, located miles away from Yigo, Guam







STORIES FROM OUR PARTNERS